[Iaude] MPEC H38: 2022 UL152 [a=1.27,e=0.59,i=18.2,H=27.0]

mpec at cfa.harvard.edu mpec at cfa.harvard.edu
Fri Apr 19 07:55:59 EDT 2024


M.P.E.C. 2024-H38                                Issued 2024 April 19, 11:54 UT

     The Minor Planet Electronic Circulars contain information on unusual
         minor planets, routine data on comets and natural satellites,
         and occasional editorial announcements.  They are published
    on behalf of Division F of the International Astronomical Union by the
          Minor Planet Center, Smithsonian Astrophysical Observatory,
                          Cambridge, MA 02138, U.S.A.
			  
             Prepared using the Tamkin Foundation Computer Network

                              MPC at CFA.HARVARD.EDU
            URL https://www.minorplanetcenter.net/    ISSN 1523-6714

                                   2022 UL152                                   


Observations:
     K22UF2L*HC2022 10 31.39670302 24 22.170+07 35 24.90         21.02GVEH038V00
     K22UF2L HC2022 10 31.40224802 24 20.010+07 33 05.10         20.81GVEH038V00
     K22UF2L HC2022 10 31.40776602 24 17.840+07 30 45.20               VEH038V00
     K22UF2L HC2022 10 31.41328802 24 15.700+07 28 26.10               VEH038V00
     K22UF2L mC2022 10 31.42530702 24 11.099+07 23 23.50         20.78GVEH038V00
     K22UF2L mC2022 10 31.42556902 24 10.984+07 23 16.94         21.20GVEH038V00
     K22UF2L mC2022 10 31.42583002 24 10.883+07 23 10.36         20.76GVEH038V00
     K22UF2L mC2022 10 31.42609502 24 10.796+07 23 03.59         20.82GVEH038V00
     K22UF2L mC2022 10 31.47278602 23 52.994+07 03 10.44         21.15GVEH038V00
     K22UF2L mC2022 10 31.47316202 23 52.847+07 03 00.29         21.49GVEH038V00
     K22UF2L mC2022 10 31.47354002 23 52.667+07 02 50.28         21.46GVEH038V00
     K22UF2L mC2022 10 31.47391702 23 52.530+07 02 41.17         21.71GVEH038V00
     K22UF2L KC2022 11 01.11452302 20 01.813+01 53 30.70         20.57GVEH038I52
     K22UF2L KC2022 11 01.11919802 19 59.653+01 50 59.35         20.75GVEH038I52
     K22UF2L KC2022 11 01.12386102 19 57.454+01 48 28.58         21.00GVEH038I52
     K22UF2L KC2022 11 01.12855002 19 55.290+01 45 54.65         20.57GVEH038I52

Observer details:
I52 Steward Observatory, Mt. Lemmon Station.  Observer J. B. Fazekas.
    Measurers E. J. Christensen, D. Fay, J. B. Fazekas, D. C. Fuls, A. R.
    Gibbs, A. D. Grauer, H. Groeller, J. K. Hogan, R. A. Kowalski, S. M.
    Larson, G. J. Leonard, D. Rankin, R. L. Seaman, A. Serrano, F. C. Shelly,
    K. W. Wierzchos.  1.0-m prime focus + CCD.
V00 Kitt Peak-Bok.  Observers H. Groeller, C. Lejoly.  Measurers M. J.
    Brucker, E. J. Christensen, C. E. Woodward, D. Fay, J. B. Fazekas, D. C.
    Fuls, A. R. Gibbs, A. D. Grauer, H. Groeller, J. K. Hogan, R. A. Kowalski,
    S. M. Larson, G. J. Leonard, R. S. McMillan, D. Rankin, R. L. Seaman, A.
    Serrano, F. C. Shelly, K. W. Wierzchos.  2.25-m reflector + 4x4K mosaic
    CCD.

Orbital elements:
2022 UL152                                               Earth MOID = 0.0273 AU
Epoch 2024 Mar. 31.0 TT = JDT 2460400.5                 Veres                   
M 315.66116              (2000.0)            P               Q                  
n   0.68911040     Peri.  291.75688     -0.82331128     -0.53622284             
a   1.2694342      Node   216.56313     +0.56299045     -0.81316003             
e   0.5897580      Incl.   18.20139     -0.07211300     -0.22635332             
P   1.43           H   27.09          G   0.15           U   9                  
Residuals in seconds of arc
221031 V00  0.1+  0.2+    221031 V00  0.0   0.2+    221101 I52  0.1+  0.6-
221031 V00  0.0   0.4-    221031 V00  0.2+  0.1+    221101 I52  0.1+  0.0
221031 V00  0.4-  1.5-    221031 V00  0.4+  1.1+    221101 I52  0.4-  1.1+
221031 V00  0.4-  1.4-    221031 V00  0.3+  0.7+    221101 I52  0.0   0.2+
221031 V00  0.2+  0.0     221031 V00  0.2-  0.4+
221031 V00  0.0   0.1+    221031 V00  0.1-  1.0+

Ephemeris:
2022 UL152               a,e,i = 1.27, 0.59, 18                  q = 0.5208
Date    TT    R. A. (2000) Decl.     Delta      r    Elong.  Phase     V
2024 03 20    00 49 33.0 +07 21 41   2.1478  1.2123    14.8    12.1    29.9
...
2024 04 04    01 35 00.1 +09 58 01   2.0269  1.0642    11.3    10.6    29.4
...
2024 04 12    02 02 12.1 +11 20 24   1.9502  0.9797    10.2    10.4    29.2
...
2024 04 18    02 24 16.9 +12 19 57   1.8873  0.9144     9.9    10.8    29.0
2024 04 19    02 28 07.1 +12 29 35   1.8764  0.9034     9.9    11.0    28.9
2024 04 20    02 32 00.1 +12 39 07   1.8653  0.8923     9.9    11.1    28.9
...
2024 04 26    02 56 21.8 +13 33 53   1.7965  0.8256    10.2    12.4    28.7
...
2024 05 04    03 31 59.0 +14 38 14   1.6978  0.7370    11.4    15.7    28.4
...
2024 05 19    04 50 04.2 +15 58 34   1.4884  0.5893    16.2    28.7    28.1

M. P. C. Staff               (C) Copyright 2024 MPC           M.P.E.C. 2024-H38





More information about the Iaude mailing list